{"data":{"norad_id":58744,"epoch":"2026-05-24T23:54:17.066304Z","epoch_age_seconds":78486,"freshness":"FRESH","line1":"1 58744U 24005S   26144.99603086  .00001825  00000+0  75786-4 0  9999","line2":"2 58744  43.0038   3.3693 0001838 270.5311  89.5330 15.27593923133877","mean_motion":15.27593923,"eccentricity":0.0001838,"inclination_deg":43.0038,"raan_deg":3.3693,"arg_perigee_deg":270.5311,"mean_anomaly_deg":89.533,"bstar":7.5786e-5,"rev_number":13387,"period_min":94.265889535095,"perigee_km":481.74632754373,"apogee_km":484.26848422733,"semimajor_km":6861.1444058855,"source":"CELESTRAK","updated_at":"2026-05-25T13:38:18.739297Z"}}